Cleburne, TX

3:23 AM CST on November 13, 2019 (GMT -0600)
Cleburne

Weather History for KCPT - October, 2019

Change the Weather History Date:

Sunday, October 20, 2019

  Actual Average (WUND) Record (WUND)
Temperature  
Mean Temperature 70 °F -  
Max Temperature 87 °F - - (-1)
Min Temperature 53 °F - - (-1)
Cooling Degree Days 5    
Growing Degree Days 20 (Base 50)    
Moisture  
Dew Point 61 °F    
Average Humidity 71    
Maximum Humidity 94    
Minimum Humidity 45    
Precipitation  
Precipitation 0.00 in - - ()
Sea Level Pressure  
Sea Level Pressure 29.75 in    
Wind  
Wind Speed 9 mph (SSE)    
Max Wind Speed 25 mph    
Max Gust Speed 37 mph    
Visibility 10 miles    
Events Rain , Thunderstorm    
Averages and records for this station are not official NWS values.
T = Trace of Precipitation, MM = Missing Value Source: NWS Daily Summary

Daily Weather History Graph

Daily Weather History Graph

Search for Another Location

Airport or City:

Astronomy

Oct. 20, 2019 Rise Set
Actual Time 7:37 AM CDT 6:51 PM CDT
Civil Twilight 7:12 AM CDT 7:16 PM CDT
Nautical Twilight 6:43 AM CDT 7:44 PM CDT
Astronomical Twilight 6:15 AM CDT 8:13 PM CDT
Moon No Moon Rise 1:52 PM CDT (10/20)
Length of Visible Light 12h 04m
Length of Day
11h 14m
Waning Gibbous, 59% of the Moon is Illuminated
Oct 20
Waning Gibbous
Oct 21
Last Quarter
Oct 27
New
Nov 4
First Quarter
Nov 12
Full

Hourly Weather History & Observations

Time (CDT) Temp. Heat Index Dew Point Humidity Pressure Visibility Wind Dir Wind Speed Gust Speed Precip Events Conditions
12:15 AM 62.6 °F - 53.6 °F 72% 29.83 in 10.0 mi North 10.4 mph - N/A   Clear
12:35 AM 62.6 °F - 53.6 °F 72% 29.83 in 10.0 mi North 6.9 mph 12.7 mph N/A   Clear
12:55 AM 62.6 °F - 53.6 °F 72% 29.82 in 10.0 mi North 11.5 mph - N/A   Clear
1:15 AM 60.8 °F - 53.6 °F 77% 29.82 in 10.0 mi North 10.4 mph - N/A   Clear
1:35 AM 60.8 °F - 53.6 °F 77% 29.82 in 10.0 mi NNE 8.1 mph - N/A   Clear
1:55 AM 60.8 °F - 53.6 °F 77% 29.82 in 10.0 mi Calm Calm - N/A   Clear
2:15 AM 59.0 °F - 53.6 °F 82% 29.82 in 10.0 mi North 4.6 mph - N/A   Clear
2:35 AM 57.2 °F - 51.8 °F 82% 29.83 in 10.0 mi NNW 3.5 mph - N/A   Clear
2:55 AM 57.2 °F - 51.8 °F 82% 29.82 in 10.0 mi North 5.8 mph - N/A   Clear
3:15 AM 57.2 °F - 51.8 °F 82% 29.82 in 10.0 mi North 4.6 mph - N/A   Clear
3:35 AM 57.2 °F - 51.8 °F 82% 29.82 in 10.0 mi North 5.8 mph - N/A   Clear
3:55 AM 57.2 °F - 51.8 °F 82% 29.81 in 10.0 mi NNE 5.8 mph - N/A   Clear
4:15 AM 55.4 °F - 51.8 °F 88% 29.82 in 10.0 mi NNW 4.6 mph - N/A   Clear
4:35 AM 57.2 °F - 51.8 °F 82% 29.82 in 10.0 mi NE 4.6 mph - N/A   Clear
4:55 AM 55.4 °F - 51.8 °F 88% 29.82 in 10.0 mi Calm Calm - N/A   Clear
5:15 AM 55.4 °F - 51.8 °F 88% 29.83 in 10.0 mi NW 4.6 mph - N/A   Clear
5:35 AM 53.6 °F - 51.8 °F 94% 29.83 in 10.0 mi Calm Calm - N/A   Clear
5:55 AM 53.6 °F - 51.8 °F 94% 29.84 in 10.0 mi Calm Calm - N/A   Clear
6:15 AM 53.6 °F - 51.8 °F 94% 29.84 in 10.0 mi North 3.5 mph - N/A   Clear
6:35 AM 55.4 °F - 51.8 °F 88% 29.84 in 10.0 mi Calm Calm - N/A   Clear
6:55 AM 53.6 °F - 51.8 °F 94% 29.84 in 10.0 mi Calm Calm - N/A   Clear
7:15 AM 53.6 °F - 51.8 °F 94% 29.83 in 10.0 mi Calm Calm - N/A   Clear
7:35 AM 53.6 °F - 51.8 °F 94% 29.84 in 10.0 mi Calm Calm - N/A   Clear
7:55 AM 53.6 °F - 51.8 °F 94% 29.84 in 10.0 mi Calm Calm - N/A   Clear
8:15 AM 53.6 °F - 51.8 °F 94% 29.84 in 10.0 mi Calm Calm - N/A   Clear
8:35 AM 55.4 °F - 53.6 °F 94% 29.84 in 10.0 mi Calm Calm - N/A   Clear
8:55 AM 59.0 °F - 55.4 °F 88% 29.84 in 10.0 mi Calm Calm - N/A   Clear
9:15 AM 62.6 °F - 57.2 °F 82% 29.85 in 10.0 mi SSE 4.6 mph - N/A   Clear
9:35 AM 66.2 °F - 57.2 °F 73% 29.85 in 8.0 mi SSE 8.1 mph - N/A Rain Light Rain
9:55 AM 68.0 °F - 59.0 °F 73% 29.85 in 4.0 mi SSE 6.9 mph - N/A   Haze
10:15 AM 69.8 °F - 59.0 °F 68% 29.85 in 4.0 mi SSE 10.4 mph - N/A   Haze
10:35 AM 71.6 °F - 59.0 °F 64% 29.84 in 3.0 mi SE 10.4 mph - N/A Rain Light Rain
10:55 AM 75.2 °F - 59.0 °F 57% 29.84 in 10.0 mi SSE 11.5 mph - N/A   Light Drizzle
11:15 AM 75.2 °F - 59.0 °F 57% 29.83 in 10.0 mi South 9.2 mph - N/A   Clear
11:35 AM 77.0 °F - 59.0 °F 54% 29.82 in 10.0 mi South 11.5 mph - N/A   Clear
11:55 AM 78.8 °F - 57.2 °F 47% 29.81 in 10.0 mi South 15.0 mph - N/A   Clear
12:15 PM 80.6 °F 80.8 °F 57.2 °F 45% 29.80 in 10.0 mi South 16.1 mph - N/A   Unknown
12:35 PM 82.4 °F 82.5 °F 59.0 °F 45% 29.79 in 10.0 mi SSE 11.5 mph 19.6 mph N/A   Clear
12:55 PM 82.4 °F 82.9 °F 60.8 °F 48% 29.78 in 10.0 mi South 15.0 mph - N/A   Clear
1:15 PM 82.4 °F 82.9 °F 60.8 °F 48% 29.77 in 10.0 mi South 11.5 mph 20.7 mph N/A   Clear
1:35 PM 84.2 °F 85.0 °F 62.6 °F 48% 29.76 in 10.0 mi South 13.8 mph - N/A   Clear
1:55 PM 84.2 °F 85.0 °F 62.6 °F 48% 29.74 in 10.0 mi South 9.2 mph 19.6 mph N/A   Clear
2:15 PM 86.0 °F 87.3 °F 64.4 °F 48% 29.72 in 10.0 mi South 13.8 mph 20.7 mph N/A   Clear
2:35 PM 87.8 °F 89.4 °F 64.4 °F 46% 29.71 in 10.0 mi South 15.0 mph 24.2 mph N/A Rain Light Rain
2:55 PM 87.8 °F 90.4 °F 66.2 °F 49% 29.70 in 10.0 mi South 19.6 mph 27.6 mph N/A   Clear
3:15 PM 87.8 °F 91.4 °F 68.0 °F 52% 29.69 in 10.0 mi South 19.6 mph 28.8 mph N/A   Clear
3:35 PM 87.8 °F 92.6 °F 69.8 °F 55% 29.69 in 10.0 mi South 18.4 mph 25.3 mph N/A   Clear
3:55 PM 86.0 °F 90.4 °F 69.8 °F 58% 29.68 in 10.0 mi South 18.4 mph 27.6 mph N/A   Clear
4:15 PM 86.0 °F 90.4 °F 69.8 °F 58% 29.68 in 10.0 mi South 19.6 mph 26.5 mph N/A   Clear
4:35 PM 84.2 °F 87.3 °F 68.0 °F 58% 29.67 in 10.0 mi South 20.7 mph 28.8 mph N/A   Clear
4:55 PM - - - N/A% - 10.0 mi North - - N/A   Partly Cloudy
5:15 PM 86.0 °F 89.4 °F 68.0 °F 55% 29.66 in 10.0 mi South 18.4 mph 26.5 mph N/A   Clear
5:35 PM 86.0 °F 89.4 °F 68.0 °F 55% 29.65 in 10.0 mi South 17.3 mph 23.0 mph N/A   Clear
5:55 PM - - - N/A% - - North - - N/A   Unknown
6:15 PM 82.4 °F 86.3 °F 69.8 °F 66% 29.65 in 10.0 mi South 13.8 mph 21.9 mph N/A   Unknown
6:35 PM 82.4 °F 85.4 °F 68.0 °F 62% 29.64 in 10.0 mi South 13.8 mph - N/A Thunderstorm Clear
6:55 PM 82.4 °F 85.4 °F 68.0 °F 62% 29.63 in 10.0 mi SSE 12.7 mph - N/A   Clear
7:15 PM 82.4 °F 85.4 °F 68.0 °F 62% 29.62 in 10.0 mi SSE 9.2 mph 19.6 mph N/A   Clear
7:35 PM 82.4 °F 85.4 °F 68.0 °F 62% 29.62 in 10.0 mi SSE 10.4 mph 18.4 mph N/A   Unknown
7:55 PM 80.6 °F 83.9 °F 69.8 °F 70% 29.62 in 10.0 mi SSE 13.8 mph 19.6 mph N/A   Clear
8:15 PM 80.6 °F 83.9 °F 69.8 °F 70% 29.61 in 10.0 mi SSE 17.3 mph - N/A Thunderstorm Scattered Clouds
8:35 PM 80.6 °F 83.9 °F 69.8 °F 70% 29.64 in 10.0 mi SW 5.8 mph 17.3 mph N/A   Scattered Clouds
8:55 PM 78.8 °F - 69.8 °F 74% 29.64 in 10.0 mi South 6.9 mph - N/A   Clear
9:15 PM 78.8 °F - 69.8 °F 74% 29.64 in 10.0 mi South 8.1 mph - N/A   Partly Cloudy
9:35 PM 78.8 °F - 68.0 °F 69% 29.63 in 10.0 mi South 10.4 mph 18.4 mph N/A   Scattered Clouds
9:55 PM 80.6 °F 83.9 °F 69.8 °F 70% 29.62 in 10.0 mi South 18.4 mph - N/A   Partly Cloudy
10:15 PM 80.6 °F 83.9 °F 69.8 °F 70% 29.62 in 10.0 mi South 18.4 mph 27.6 mph N/A   Clear
10:35 PM 80.6 °F 83.9 °F 69.8 °F 70% 29.62 in 10.0 mi South 18.4 mph 25.3 mph N/A   Clear
10:55 PM 80.6 °F 84.6 °F 71.6 °F 74% 29.62 in 10.0 mi South 20.7 mph 28.8 mph N/A   Clear
11:15 PM 78.8 °F - 71.6 °F 78% 29.61 in 10.0 mi South 19.6 mph 28.8 mph N/A   Clear
11:35 PM 78.8 °F - 71.6 °F 78% 29.59 in 10.0 mi South 25.3 mph 35.7 mph N/A   Clear
11:55 PM 78.8 °F - 71.6 °F 78% 29.57 in 10.0 mi South 23.0 mph 36.8 mph N/A   Clear